Flag for U.S.A. Weather past 2 weeks in Pontiac, Michigan, U.S.A.

Now
52 °F

Light rain. Fog.


Feels Like: 52 °F
Forecast: 51 / 70 °F
Wind: 3 mph from Northeast

Location: Oakland County International Airport

Current Time: May 5, 2015 at 8:36:05 PM

Latest Report: May 5, 2015 at 7:53 PM


Visibility: 5 mi

Pressure: 30.26 "Hg

Humidity: 97%

Dew point: 51 °F

Location of PontiacLocation

Historic Weather in Pontiac — Graph

°F

Pontiac temperature yesterday

Maximum temperature yesterday: 75 °F (at 1:53 PM)
Minimum temperature yesterday: 61 °F (at 7:53 AM)
Average temperature yesterday: 68 °F

Past Weeks' High & Low Weather Summary

 TemperatureHumidityPressure
High77 °F (May 3, 2:53 PM)96% (May 5, 4:53 PM)30.32 "Hg (May 5, 4:53 PM)
Low27 °F (Apr 24, 4:53 AM)23% (Apr 24, 4:53 PM)29.44 "Hg (Apr 20, 6:53 PM)
Average49 °F59%29.93 "Hg
* Reported Apr 20 6:53 PM — May 5 6:53 PM, Pontiac, Weather by CustomWeather, © 2015

Note: Actual official high and low records may vary slightly from our data, if they occured in-between our weather recording intervals... More about our weather records

Advertising

Pontiac weather history for previous 24 hours

 ConditionsComfort  
Time TempWeatherWind HumidityBarometerVisibility
6:53 PM
Tue, May 5
52 °FLight rain. Fog.3 mph93%30.27 "Hg4 mi
6:00 PM52 °FLight rain. More clouds than sun.7 mph89%30.26 "Hg7 mi
4:53 PM51 °FLight rain. Fog.3 mph96%30.29 "Hg5 mi
3:53 PM52 °FLight rain. Fog.6 mph93%30.29 "Hg6 mi
2:53 PM51 °FLight rain. Fog.8 mph89%30.29 "Hg5 mi
1:53 PM52 °FLight rain. Overcast.9 mph83%30.29 "Hg10 mi
12:53 PM49 °FLight rain. Mostly cloudy.8 mph90%30.29 "Hg10 mi
11:53 AM48 °FHeavy rain. Fog.9 mph89%30.32 "Hg2 mi
10:53 AM54 °FLight rain. Overcast.10 mph53%30.30 "Hg10 mi
9:53 AM54 °FOvercast.3 mph49%30.29 "Hg10 mi
8:53 AM53 °FOvercast.7 mph48%30.28 "Hg10 mi
7:53 AM53 °FMostly cloudy.5 mph48%30.28 "Hg10 mi
6:53 AM52 °FMostly cloudy.8 mph50%30.26 "Hg10 mi
5:53 AM52 °FOvercast.9 mph50%30.24 "Hg10 mi
4:53 AM53 °FClear.9 mph48%30.22 "Hg10 mi
3:53 AM54 °FClear.8 mph51%30.22 "Hg10 mi
2:53 AM55 °FClear.6 mph53%30.21 "Hg10 mi
1:53 AM57 °FClear.7 mph55%30.21 "Hg10 mi
12:53 AM58 °FClear.10 mph56%30.19 "Hg10 mi
11:53 PM
Mon, May 4
64 °FOvercast.6 mph70%30.17 "Hg10 mi
10:53 PM61 °FPassing clouds.No wind81%30.17 "Hg10 mi
9:53 PM64 °FPassing clouds.No wind70%30.14 "Hg10 mi
8:53 PM69 °FPartly sunny.5 mph59%30.12 "Hg10 mi
Weather by CustomWeather, © 2015

See weather overviewHow to use our weather pages